• In Latvia
  • List of Countries
  • For 7 days
  • Water Temperature
  • Satellite Maps
  • Weather Map
  • Weather Widgets
  • user-avatar
    Login

    Hourly Weather Eisenstadt

    Today, 26 March, Sunday

    Time Temperature Precipitation Wind Pressure Humidity
    00:00 +4°C° 0 mm 2 mps 724 mmHg 73%
    01:00 +3°C° 0 mm 3 mps 724 mmHg 73%
    02:00 +3°C° 0 mm 3 mps 724 mmHg 75%
    03:00 +2°C° 0 mm 3 mps 724 mmHg 78%
    04:00 +2°C° 0 mm 3 mps 724 mmHg 81%
    05:00 +1°C° 0 mm 4 mps 724 mmHg 81%
    06:00 +1°C° 0 mm 4 mps 724 mmHg 81%
    07:00 +1°C° 0 mm 4 mps 725 mmHg 78%
    08:00 +2°C° 0 mm 5 mps 725 mmHg 69%
    09:00 +3°C° 0 mm 5 mps 726 mmHg 60%
    10:00 +5°C° 0 mm 5 mps 726 mmHg 51%
    11:00 +6°C° 0 mm 5 mps 726 mmHg 49%
    12:00 +7°C° 0 mm 5 mps 726 mmHg 47%
    13:00 +7°C° 0 mm 5 mps 726 mmHg 45%
    14:00 +7°C° 0 mm 5 mps 726 mmHg 47%
    15:00 +7°C° 0 mm 4 mps 726 mmHg 48%
    16:00 +7°C° 0 mm 4 mps 726 mmHg 50%
    17:00 +5°C° 0 mm 4 mps 727 mmHg 57%
    18:00 +4°C° 0 mm 3 mps 727 mmHg 65%
    19:00 +2°C° 0 mm 3 mps 727 mmHg 72%
    20:00 +2°C° 0 mm 3 mps 728 mmHg 75%
    21:00 +2°C° 0 mm 2 mps 728 mmHg 77%
    22:00 +2°C° 0 mm 2 mps 729 mmHg 79%
    23:00 +1°C° 0 mm 2 mps 729 mmHg 80%

    Tomorrow, 27 March, Monday

    Time Temperature Precipitation Wind Pressure Humidity
    00:00 +1°C° 0 mm 2 mps 729 mmHg 81%
    01:00 +1°C° 0 mm 2 mps 729 mmHg 82%
    02:00 +1°C° 0 mm 1 mps 729 mmHg 83%
    03:00 +1°C° 0 mm 1 mps 729 mmHg 84%
    04:00 0°C° 0 mm 1 mps 729 mmHg 85%
    05:00 +1°C° 0 mm 1 mps 729 mmHg 80%
    06:00 +2°C° 0 mm 1 mps 729 mmHg 75%
    07:00 +3°C° 0 mm 1 mps 730 mmHg 71%
    08:00 +5°C° 0 mm 1 mps 730 mmHg 63%
    09:00 +7°C° 0 mm 1 mps 730 mmHg 55%
    10:00 +9°C° 0 mm 1 mps 730 mmHg 47%
    11:00 +10°C° 0 mm 1 mps 730 mmHg 45%
    12:00 +11°C° 0 mm 1 mps 730 mmHg 42%
    13:00 +12°C° 0 mm 1 mps 730 mmHg 40%
    14:00 +12°C° 0 mm 1 mps 729 mmHg 40%
    15:00 +12°C° 0 mm 1 mps 729 mmHg 41%
    16:00 +12°C° 0 mm 1 mps 728 mmHg 42%
    17:00 +9°C° 0 mm 1 mps 728 mmHg 51%
    18:00 +7°C° 0 mm 1 mps 728 mmHg 60%
    19:00 +5°C° 0 mm 1 mps 728 mmHg 69%
    20:00 +5°C° 0 mm 1 mps 728 mmHg 68%
    21:00 +4°C° 0 mm 1 mps 728 mmHg 68%
    22:00 +4°C° 0 mm 1 mps 728 mmHg 68%
    23:00 +3°C° 0 mm 2 mps 728 mmHg 67%

    Day after tomorrow, 28 March, Tuesday

    Time Temperature Precipitation Wind Pressure Humidity
    00:00 +3°C° 0 mm 2 mps 728 mmHg 67%
    01:00 +3°C° 0 mm 2 mps 728 mmHg 67%
    02:00 +3°C° 0 mm 2 mps 728 mmHg 67%
    03:00 +3°C° 0 mm 2 mps 728 mmHg 66%
    04:00 +2°C° 0 mm 2 mps 727 mmHg 66%
    05:00 +3°C° 0 mm 2 mps 727 mmHg 64%
    06:00 +4°C° 0 mm 2 mps 728 mmHg 62%
    07:00 +5°C° 0 mm 2 mps 728 mmHg 60%
    08:00 +7°C° 0 mm 2 mps 728 mmHg 54%
    09:00 +10°C° 0 mm 2 mps 728 mmHg 48%
    10:00 +13°C° 0 mm 2 mps 729 mmHg 41%
    11:00 +14°C° 0 mm 2 mps 728 mmHg 40%
    12:00 +15°C° 0 mm 2 mps 728 mmHg 39%
    13:00 +16°C° 0 mm 2 mps 728 mmHg 38%
    14:00 +16°C° 0 mm 1 mps 728 mmHg 40%
    15:00 +16°C° 0 mm 1 mps 727 mmHg 42%
    16:00 +16°C° 0 mm 1 mps 727 mmHg 44%
    17:00 +13°C° 0 mm 1 mps 727 mmHg 53%
    18:00 +11°C° 0 mm 1 mps 727 mmHg 62%
    19:00 +8°C° 0 mm 1 mps 727 mmHg 71%
    20:00 +8°C° 0 mm 1 mps 727 mmHg 73%
    21:00 +6°C° 0 mm 2 mps 727 mmHg 74%
    22:00 +6°C° 0 mm 2 mps 727 mmHg 75%
    23:00 +6°C° 0 mm 2 mps 727 mmHg 76%

    29 March, Wednesday

    Time Temperature Precipitation Wind Pressure Humidity
    00:00 +6°C° 0 mm 2 mps 727 mmHg 77%
    01:00 +6°C° 0 mm 2 mps 727 mmHg 78%
    02:00 +6°C° 0 mm 2 mps 727 mmHg 80%
    03:00 +6°C° 0 mm 2 mps 727 mmHg 81%
    04:00 +5°C° 0 mm 2 mps 727 mmHg 83%
    05:00 +6°C° 0 mm 2 mps 727 mmHg 81%
    06:00 +8°C° 0 mm 1 mps 727 mmHg 80%
    07:00 +9°C° 0 mm 1 mps 728 mmHg 78%
    08:00 +10°C° 0 mm 2 mps 728 mmHg 71%
    09:00 +14°C° 0 mm 2 mps 728 mmHg 63%
    10:00 +16°C° 0 mm 2 mps 728 mmHg 56%
    11:00 +16°C° 0 mm 3 mps 728 mmHg 54%
    12:00 +17°C° 0 mm 3 mps 727 mmHg 53%
    13:00 +17°C° 0 mm 3 mps 727 mmHg 51%
    14:00 +17°C° 0.1 mm 3 mps 727 mmHg 52%
    15:00 +17°C° 0.1 mm 3 mps 726 mmHg 54%
    16:00 +17°C° 0.1 mm 3 mps 726 mmHg 55%
    17:00 +14°C° 0.1 mm 3 mps 726 mmHg 63%
    18:00 +12°C° 0.1 mm 3 mps 726 mmHg 71%
    19:00 +10°C° 0.1 mm 2 mps 726 mmHg 79%
    20:00 +10°C° 0.1 mm 2 mps 727 mmHg 81%
    21:00 +9°C° 0.1 mm 3 mps 727 mmHg 83%
    22:00 +9°C° 0.1 mm 3 mps 728 mmHg 85%
    23:00 +9°C° 0.1 mm 3 mps 728 mmHg 86%

    30 March, Thursday

    Time Temperature Precipitation Wind Pressure Humidity
    00:00 +8°C° 0.1 mm 3 mps 728 mmHg 87%
    01:00 +8°C° 0.1 mm 3 mps 728 mmHg 88%
    02:00 +8°C° 0 mm 3 mps 728 mmHg 89%
    03:00 +7°C° 0 mm 3 mps 728 mmHg 90%
    04:00 +7°C° 0 mm 3 mps 728 mmHg 91%
    05:00 +7°C° 0 mm 3 mps 729 mmHg 89%
    06:00 +8°C° 0 mm 2 mps 729 mmHg 88%
    07:00 +8°C° 0 mm 2 mps 729 mmHg 87%
    08:00 +10°C° 0 mm 2 mps 729 mmHg 80%
    09:00 +11°C° 0 mm 3 mps 730 mmHg 73%
    10:00 +13°C° 0 mm 3 mps 730 mmHg 66%
    11:00 +14°C° 0.1 mm 3 mps 730 mmHg 63%
    12:00 +14°C° 0.1 mm 3 mps 729 mmHg 60%
    13:00 +16°C° 0.1 mm 3 mps 729 mmHg 57%
    14:00 +16°C° 0 mm 3 mps 729 mmHg 57%
    15:00 +16°C° 0 mm 3 mps 729 mmHg 58%
    16:00 +16°C° 0 mm 2 mps 728 mmHg 58%
    17:00 +14°C° 0 mm 2 mps 728 mmHg 65%
    18:00 +12°C° 0 mm 2 mps 728 mmHg 73%
    19:00 +11°C° 0 mm 1 mps 728 mmHg 80%
    20:00 +10°C° 0 mm 1 mps 728 mmHg 82%
    21:00 +10°C° 0 mm 1 mps 729 mmHg 83%
    22:00 +10°C° 0 mm 1 mps 729 mmHg 85%
    23:00 +9°C° 0 mm 1 mps 729 mmHg 86%

    31 March, Friday

    Time Temperature Precipitation Wind Pressure Humidity
    00:00 +9°C° 0 mm 1 mps 728 mmHg 87%
    01:00 +8°C° 0 mm 1 mps 728 mmHg 88%
    02:00 +8°C° 0 mm 1 mps 728 mmHg 87%
    03:00 +7°C° 0 mm 2 mps 728 mmHg 87%
    04:00 +7°C° 0 mm 2 mps 728 mmHg 87%
    05:00 +8°C° 0 mm 2 mps 728 mmHg 86%
    06:00 +8°C° 0 mm 2 mps 727 mmHg 86%
    07:00 +8°C° 0 mm 2 mps 727 mmHg 85%
    08:00 +10°C° 0 mm 3 mps 727 mmHg 80%
    09:00 +12°C° 0 mm 4 mps 727 mmHg 74%
    10:00 +13°C° 0 mm 4 mps 727 mmHg 69%
    11:00 +14°C° 0 mm 5 mps 726 mmHg 68%
    12:00 +14°C° 0 mm 5 mps 726 mmHg 66%
    13:00 +15°C° 0 mm 6 mps 725 mmHg 64%
    14:00 +15°C° 0 mm 6 mps 724 mmHg 65%
    15:00 +15°C° 0 mm 6 mps 724 mmHg 65%
    16:00 +15°C° 0 mm 6 mps 723 mmHg 65%
    17:00 +14°C° 0 mm 5 mps 723 mmHg 69%
    18:00 +12°C° 0 mm 5 mps 722 mmHg 74%
    19:00 +10°C° 0 mm 5 mps 722 mmHg 78%
    20:00 +10°C° 0 mm 5 mps 722 mmHg 79%
    21:00 +9°C° 0 mm 5 mps 721 mmHg 79%
    22:00 +9°C° 0 mm 5 mps 721 mmHg 79%
    23:00 +8°C° 0 mm 5 mps 721 mmHg 80%
    Show more